Location: Sungai Sibieu
(3.1667°N, 113.0500°E)
Time: 11:30:09
(UTC+00:00)

Daily predictions for brighter satellites

Satellite Brightness Start Highest point End
(mag) Time Altitude Azimuth Time Altitude Azimuth Time Altitude Azimuth
Cosmos 1844 Rocket 3.5 12:01:18 10° N 12:04:59 33° NE 12:04:59 33° NE
Cosmos 2322 3.7 12:02:35 10° SSW 12:08:15 82° WNW 12:13:56 10° NNE
Cosmos 783 Rocket 4.3 12:06:11 10° N 12:11:24 73° ENE 12:11:36 71° E
Cosmos 2082 4.4 12:08:55 10° NNW 12:14:19 51° WSW 12:18:58 14° S
Palapa 6 Rocket 4.0 12:12:24 10° W 12:18:10 46° SSW 12:18:41 44° S
BREEZE-M DEB (TANK) 4.0 12:18:12 10° SW 12:20:01 25° W 12:20:01 25° W
CENTAUR R/B 3.5 12:13:16 10° N 12:22:22 51° ENE 12:23:20 49° E
Mugunghwa Rocket 4.2 12:18:30 10° SW 12:25:14 60° SSE 12:25:17 60° SSE
Resurs 01 Rocket 3.5 12:21:36 10° SSW 12:25:22 28° WSW 12:29:08 10° NW
ARIANE 5 DEB (SYLDA) 4.4 12:21:26 10° WSW 12:25:36 34° SW 12:25:36 34° SW
NOSS 0 Rocket 3.8 12:23:57 10° SSW 12:38:53 - NNE 12:29:59 84° S
Centaur AC-112 3.4 12:21:07 10° WNW 12:30:59 56° SW 12:30:59 56° SW
Lacrosse 4 Rocket 4.3 12:32:56 10° W 12:34:50 13° WSW 12:36:46 10° SW
Ariane H10+ 4.3 12:20:47 10° W 12:37:24 88° S 12:42:20 53° E
COSMOS 2428 3.7 12:32:17 10° SSW 12:37:42 45° WNW 12:43:07 10° N
Chandra Rocket (1) 4.5 13:07:22 10° WSW 13:30:20 68° WSW 13:30:20 68° WSW
ARIANE 5 DEB (SYLDA) 3.9 19:56:15 67° SSE 19:56:15 67° SSE 20:14:27 10° E
Cosmos 2266 Rocket 4.5 20:03:13 10° N 20:09:06 55° E 20:14:58 10° SSE
Cosmos 1980 Rocket 2.4 20:33:04 56° S 20:33:04 56° S 20:37:28 10° SSE
ARIANE 5 R/B 4.1 20:34:46 27° SSE 20:34:46 27° SSE 20:37:11 10° ESE
Ariane H10 3.6 20:35:56 24° ESE 20:35:56 24° ESE 20:37:47 10° ESE
ARIANE 5 R/B 4.4 20:41:46 59° SW 20:42:30 67° S 20:51:56 10° E
Cosmos 1553 Rocket 4.1 20:36:30 10° S 20:42:32 70° E 20:48:34 10° N
FengYun 1-2 T 4.3 20:36:54 10° NNE 20:42:33 79° ESE 20:46:39 19° S
CZ-2C R/B 3.8 20:42:20 10° N 20:44:26 24° NNW 20:44:26 24° NNW
USA 234 3.3 20:42:59 10° SE 20:49:30 76° NE 20:56:00 10° NNW
Meteor 2-4 Rocket 3.7 20:51:11 55° WSW 20:51:40 57° W 20:57:05 10° N
SL-16 R/B 2.5 20:49:10 10° SSE 20:55:23 84° ENE 21:01:36 10° NNW
ATLAS 3B R/B 3.3 20:50:23 10° N 20:57:24 57° ENE 21:03:53 10° SE
USA 229 DEB 4.2 20:51:19 10° NNW 20:59:42 84° ENE 21:08:07 10° SSE
USA 229 4.2 20:51:23 10° NNW 20:59:47 83° ENE 21:08:11 10° SSE
Meteor 2-9 Rocket 4.0 20:55:14 10° NNW 21:00:23 56° W 21:05:36 10° S
Cosmos 1939 Rocket 3.8 20:57:36 10° N 20:59:36 30° NNW 20:59:36 30° NNW
ISS -3.6 21:02:41 65° SSE 21:02:53 67° SE 21:06:11 10° NE
Cosmos 2237 4.5 20:59:41 10° N 21:05:21 70° ENE 21:11:03 10° SSE
Cosmos 1151 Rocket 4.3 21:06:09 10° SSE 21:10:08 40° E 21:14:05 10° NNE
ATLAS 5 CENTAUR R/B 3.9 21:13:50 19° SW 21:13:50 19° SW 21:16:48 10° SSW
In-Cosmos 22 4.3 21:07:17 10° S 21:12:38 72° E 21:17:52 10° N
SL-16 R/B 4.0 21:10:23 10° N 21:15:27 34° ENE 21:20:30 10° SE
Cosmos 1655 Rocket 3.9 21:10:33 10° N 21:16:43 74° W 21:22:55 10° S
Cosmos 841 Rocket 3.4 21:12:42 13° SSW 21:17:14 63° WNW 21:22:16 10° N
BLOCK DM-SL R/B 3.7 21:17:27 29° WSW 21:19:51 66° S 21:39:31 10° E
Cosmos 1066 Rocket 4.5 21:14:34 10° SSW 21:19:55 43° W 21:25:06 10° NNW
NOAA 12 4.0 21:15:35 10° N 21:20:48 77° WNW 21:26:01 10° SSW
Ariane 42L R/B 2.9 21:20:19 23° W 21:23:48 76° S 21:27:36 10° ESE
Meteor 1-11 Rocket 3.9 21:21:27 10° NNW 21:27:03 50° W 21:32:32 10° SSW
H-2A R/B 3.1 21:23:55 10° N 21:27:43 70° WNW 21:31:32 10° SSW
Cosmos 1766 Rocket 3.4 21:23:28 10° N 21:27:46 89° W 21:32:04 10° S
Cosmos 1486 Rocket 4.0 21:25:32 10° NNW 21:30:45 88° WSW 21:36:01 10° SSE
DELTA 2 R/B (1) 4.0 21:29:48 20° WSW 21:33:14 45° NW 21:38:28 10° NNE
Cosmos 1417 Rocket 4.4 21:27:41 10° S 21:34:00 78° W 21:40:14 10° N
OAO 3 Rocket 4.3 21:29:42 10° NW 21:34:14 42° NE 21:38:42 10° ESE
USA 215 3.3 21:32:53 10° NNE 21:39:19 62° NW 21:45:47 10° SW
ARIANE 5 R/B 2.6 21:41:24 16° WSW 21:42:55 26° S 21:44:35 10° SE
CZ-4 R/B 3.7 21:41:01 10° N 21:45:38 80° WNW 21:50:20 10° SSW
SL-14 R/B 4.1 21:44:42 10° SW 21:47:57 27° W 21:51:16 10° NNW
Cosmos 2297 Rocket 2.7 21:43:36 10° S 21:49:12 65° ESE 21:54:46 10° NNE
S3M 4.0 21:42:59 10° S 21:49:18 67° W 21:55:38 10° N
Cosmos 1777 Rocket 4.1 21:49:42 10° NNW 21:54:48 55° WSW 21:59:53 10° S
Okean 3 Rocket 4.3 21:51:45 10° N 21:56:07 61° E 22:00:31 10° SSE
Nadezhda 2 Rocket 4.4 21:52:47 10° N 21:58:48 67° W 22:04:52 10° S
BLOCK DM-SL R/B 4.2 21:54:53 10° WSW 22:00:41 30° S 22:04:14 10° ESE
ARIANE 3 DEB 1.2 22:00:03 10° W 22:02:16 75° S 22:04:38 10° E
Lacrosse 5 rocket 0.8 21:59:01 10° NW 22:02:23 63° WSW 22:05:53 10° SSE
Cosmos 2333 Rocket 2.2 21:59:05 10° NNW 22:04:45 85° WSW 22:10:28 10° SSE
Ariane H10 3.2 21:57:01 10° W 22:09:12 88° S 22:12:27 10° E
